Location: *
(33.6842°N, 117.7925°W)
Time: 08:52:11
(UTC+00:00)

RESURS DK-1 - Pass Details

Date: 21 October 2019
Orbit: 557 x 561 km, 69.9° (Epoch: 20 November)

Event Time Altitude Azimuth Distance (km) Brightness Sun altitude
Exits shadow 13:20:31 11° 291° (WNW) 1,765 4.3 -9.1°
Maximum altitude 13:21:23 12° 304° (WNW) 1,729 4.3 -8.9°
Drops below altitude 10° 13:22:55 10° 326° (NW) 1,845 4.6 -8.6°
Sets 13:26:32 0° 359° (N) 2,744 5.8 -7.8°
